DW5861 Weather Reports


Display with metric or nautical units.
time (UTC)temp
F
wind
direction
speed
MPH
gust
MPH
rain 1hr
in
rain 24hr
in
rain mn
in
humidity
%
barometer
mb
20260902044003 81 86 2.0 7.0 0.00 0.08 0.08 84 1013.3
20260902043503 81 40 2.0 7.0 0.00 0.08 0.08 84 1013.1
20260902043003 81 18 2.0 5.0 0.00 0.08 0.08 84 1013.0
20260902042503 81 27 2.0 6.0 0.00 0.08 0.08 84 1013.0
20260902042003 81 20 3.0 6.0 0.00 0.08 0.08 84 1013.1
20260902041503 81 14 2.0 7.0 0.00 0.08 0.08 84 1013.1
20260902041003 81 20 3.0 8.0 0.00 0.08 0.08 84 1013.2
20260902040503 81 28 3.0 8.0 0.00 0.08 0.08 84 1013.3
20260902040024 81 28 2.0 7.0 0.00 0.08 0.08 84 1013.3
20260902035503 81 20 2.0 7.0 0.00 0.08 0.08 84 1013.3
20260902035003 81 24 2.0 6.0 0.00 0.08 0.08 84 1013.3
20260902034524 81 13 2.0 6.0 0.00 0.08 0.08 83 1013.1
20260902034003 81 13 1.0 4.0 0.00 0.08 0.08 83 1013.1
20260902033503 81 23 2.0 4.0 0.00 0.08 0.08 83 1013.2
20260902033024 81 4 2.0 4.0 0.00 0.08 0.08 83 1013.2
20260902032503 81 22 2.0 6.0 0.00 0.08 0.08 82 1013.2
20260902032003 81 34 2.0 7.0 0.00 0.08 0.08 82 1013.2
20260902031503 81 16 2.0 7.0 0.00 0.08 0.08 82 1013.3
20260902031024 81 8 2.0 4.0 0.00 0.08 0.08 82 1013.2
20260902030503 81 7 2.0 4.0 0.00 0.08 0.08 82 1013.1
20260902030003 81 8 2.0 6.0 0.00 0.08 0.08 82 1013.0
20260902025503 81 34 2.0 6.0 0.00 0.08 0.08 81 1013.0
20260902025024 81 62 2.0 6.0 0.00 0.08 0.08 81 1012.8
20260902024503 81 60 2.0 7.0 0.00 0.08 0.08 81 1012.8
20260902024003 81 35 2.0 7.0 0.00 0.08 0.08 81 1012.8
20260902023503 81 20 2.0 6.0 0.00 0.08 0.08 81 1012.8
20260902023003 81 11 2.0 6.0 0.00 0.08 0.08 80 1012.6
20260902022504 81 1 2.0 5.0 0.00 0.08 0.08 80 1012.7
20260902022004 82 10 2.0 5.0 0.00 0.08 0.08 81 1012.7
20260902021525 82 27 1.0 5.0 0.00 0.08 0.08 80 1012.6
20260902021025 82 35 1.0 5.0 0.00 0.08 0.08 80 1012.5
20260902020504 82 54 2.0 6.0 0.00 0.08 0.08 80 1012.5
20260902020004 82 53 2.0 6.0 0.00 0.08 0.08 80 1012.4
20260902015525 82 45 1.0 5.0 0.00 0.08 0.08 79 1012.4
20260902015004 82 20 1.0 4.0 0.00 0.08 0.08 80 1012.5
20260902014504 82 28 2.0 5.0 0.00 0.08 0.08 80 1012.4
20260902014025 82 36 2.0 6.0 0.00 0.08 0.08 79 1012.4
20260902013504 82 27 1.0 6.0 0.00 0.08 0.08 78 1012.3
20260902013025 82 44 1.0 4.0 0.00 0.08 0.08 79 1012.3
20260902012504 82 53 1.0 4.0 0.00 0.08 0.08 79 1012.2
20260902012025 82 21 1.0 3.0 0.00 0.08 0.08 79 1012.2
20260902011504 82 15 1.0 2.0 0.00 0.08 0.08 79 1012.0
20260902011004 82 51 1.0 4.0 0.00 0.08 0.08 78 1011.9
20260902010504 83 43 1.0 4.0 0.00 0.08 0.08 77 1012.0
20260902010025 83 23 2.0 6.0 0.00 0.08 0.08 78 1011.9
20260902005525 83 23 2.0 8.0 0.00 0.08 0.08 77 1011.9
20260902005004 83 15 1.0 4.0 0.00 0.08 0.08 77 1011.9
20260902004504 84 24 2.0 5.0 0.00 0.08 0.08 76 1012.0
20260902004004 84 22 2.0 5.0 0.00 0.08 0.08 75 1012.1
20260902003504 84 22 2.0 5.0 0.00 0.08 0.08 75 1012.1
20260902003004 84 49 2.0 4.0 0.00 0.08 0.08 74 1012.2
20260902002504 85 45 2.0 6.0 0.00 0.08 0.08 73 1012.3
20260902002004 85 36 2.0 7.0 0.00 0.08 0.08 73 1012.3
20260902001525 85 43 3.0 7.0 0.00 0.08 0.08 72 1012.5
20260902001004 85 43 2.0 8.0 0.00 0.08 0.08 72 1012.6
20260902000504 85 48 2.0 8.0 0.00 0.08 0.08 72 1012.5
20260902000025 86 44 3.0 9.0 0.00 0.08 0.08 71 1012.4
20260901235504 86 31 3.0 9.0 0.00 0.08 0.08 71 1012.4
20260901235025 86 25 2.0 8.0 0.00 0.08 0.08 71 1012.3
20260901234504 86 53 2.0 8.0 0.00 0.08 0.08 72 1012.3
20260901234004 86 52 3.0 8.0 0.00 0.08 0.08 71 1012.4
20260901233504 86 48 3.0 10.0 0.00 0.08 0.08 72 1012.5
20260901233004 86 42 3.0 10.0 0.00 0.08 0.08 72 1012.4
20260901232504 85 40 3.0 8.0 0.00 0.08 0.08 73 1012.4
20260901232004 85 38 3.0 8.0 0.00 0.08 0.08 73 1012.3
20260901231504 85 27 3.0 7.0 0.00 0.08 0.08 73 1012.4
20260901231004 85 42 2.0 7.0 0.00 0.08 0.08 74 1012.4
20260901230504 85 60 2.0 9.0 0.00 0.08 0.08 74 1012.4
20260901230004 85 39 2.0 9.0 0.00 0.08 0.08 76 1012.3
20260901225504 85 34 2.0 5.0 0.00 0.08 0.08 75 1012.3
20260901225025 84 32 2.0 5.0 0.00 0.08 0.08 76 1012.3
20260901224504 84 40 2.0 4.0 0.00 0.08 0.08 78 1012.4
20260901224004 84 55 1.0 4.0 0.00 0.08 0.08 78 1012.5
20260901223525 83 47 1.0 3.0 0.00 0.08 0.08 80 1012.5
20260901223005 83 353 1.0 4.0 0.00 0.08 0.08 83 1012.5
20260901222525 83 355 1.0 4.0 0.00 0.08 0.08 85 1012.4
20260901222004 82 19 1.0 3.0 0.00 0.08 0.08 85 1012.5
20260901221504 82 357 1.0 2.0 0.00 0.08 0.08 87 1012.6
20260901221004 82 360 1.0 5.0 0.00 0.08 0.08 86 1012.6
20260901220504 82 27 2.0 5.0 0.00 0.08 0.08 87 1012.8
20260901220025 82 17 1.0 5.0 0.00 0.08 0.08 86 1012.8
20260901215504 82 336 1.0 2.0 0.00 0.08 0.08 88 1012.9
20260901215004 82 322 1.0 2.0 0.01 0.08 0.08 88 1012.8
20260901214504 82 340 1.0 3.0 0.07 0.08 0.08 87 1013.0
20260901214025 82 12 1.0 5.0 0.07 0.08 0.08 87 1013.1
20260901213504 82 109 2.0 6.0 0.07 0.08 0.08 87 1013.2
20260901213004 82 131 2.0 6.0 0.07 0.08 0.08 88 1013.4
20260901212504 82 151 1.0 3.0 0.07 0.08 0.08 89 1013.5
20260901212004 81 201 1.0 3.0 0.07 0.08 0.08 89 1013.5
20260901211504 81 185 1.0 3.0 0.07 0.08 0.08 88 1013.6
20260901211004 81 103 1.0 2.0 0.07 0.08 0.08 88 1013.6
20260901210525 81 82 1.0 3.0 0.07 0.08 0.08 87 1013.7
20260901210025 81 30 1.0 3.0 0.08 0.08 0.08 86 1013.7
20260901205504 81 94 3.0 11.0 0.08 0.08 0.08 85 1013.6
20260901205004 82 111 3.0 11.0 0.07 0.07 0.07 83 1013.7
20260901204504 83 125 3.0 8.0 0.01 0.01 0.01 83 1013.9
20260901204004 83 170 2.0 5.0 0.01 0.01 0.01 84 1013.4
20260901203504 83 192 2.0 5.0 0.01 0.01 0.01 84 1013.2
20260901203004 83 183 2.0 4.0 0.01 0.01 0.01 85 1013.3
20260901202504 83 191 2.0 4.0 0.01 0.01 0.01 85 1013.3
20260901202004 83 195 2.0 4.0 0.01 0.01 0.01 84 1013.3
20260901201525 83 191 2.0 4.0 0.01 0.01 0.01 84 1013.5
20260901201004 83 189 3.0 6.0 0.01 0.01 0.01 84 1013.5
20260901200504 84 188 3.0 6.0 0.01 0.01 0.01 82 1013.5
20260901200004 84 184 3.0 7.0 0.00 0.00 0.00 79 1013.5
20260901195504 86 161 5.0 10.0 0.00 0.00 0.00 75 1013.7
20260901195004 89 148 5.0 10.0 0.00 0.00 0.00 69 1013.7
20260901194525 92 137 4.0 10.0 0.00 0.00 0.00 61 1013.7
20260901194025 95 113 3.0 10.0 0.00 0.00 0.00 56 1013.5
20260901193504 96 118 3.0 8.0 0.00 0.00 0.00 51 1013.3
20260901193004 96 96 4.0 8.0 0.00 0.00 0.00 52 1013.2
20260901192504 96 17 3.0 7.0 0.00 0.00 0.00 53 1013.2
20260901192004 95 16 3.0 9.0 0.00 0.00 0.00 55 1013.3
20260901191504 95 24 4.0 9.0 0.00 0.00 0.00 53 1013.2
20260901191004 96 36 4.0 8.0 0.00 0.00 0.00 52 1013.2
20260901190504 97 117 3.0 8.0 0.00 0.00 0.00 49 1013.3
20260901190005 98 84 3.0 8.0 0.00 0.00 0.00 49 1013.3
20260901185504 97 55 4.0 8.0 0.00 0.00 0.00 50 1013.5
20260901185004 98 85 4.0 12.0 0.00 0.00 0.00 48 1013.5
20260901184504 98 42 4.0 12.0 0.00 0.00 0.00 48 1013.6
20260901184004 97 68 4.0 12.0 0.00 0.00 0.00 50 1013.5
20260901183504 98 121 4.0 12.0 0.00 0.00 0.00 47 1013.5
20260901183004 99 108 3.0 10.0 0.00 0.00 0.00 47 1013.5
20260901182504 97 77 4.0 11.0 0.00 0.00 0.00 50 1013.5
20260901182004 96 57 3.0 11.0 0.00 0.00 0.00 51 1013.5
20260901181504 95 57 3.0 7.0 0.00 0.00 0.00 53 1013.6
20260901181004 95 75 3.0 7.0 0.00 0.00 0.00 52 1013.7
20260901180504 95 51 4.0 13.0 0.00 0.00 0.00 51 1013.8
20260901180004 95 42 4.0 13.0 0.00 0.00 0.00 51 1013.9
20260901175504 96 53 3.0 7.0 0.00 0.00 0.00 50 1014.1
20260901175004 96 40 3.0 7.0 0.00 0.00 0.00 51 1014.1
20260901174504 97 23 3.0 7.0 0.00 0.00 0.00 54 1014.2
20260901174004 96 16 3.0 7.0 0.00 0.00 0.00 55 1014.3
20260901173504 94 6 2.0 7.0 0.00 0.00 0.00 58 1014.4
20260901173004 93 2 2.0 7.0 0.00 0.00 0.00 60 1014.5
20260901172504 93 23 2.0 6.0 0.00 0.00 0.00 60 1014.6
20260901172004 92 19 2.0 6.0 0.00 0.00 0.00 60 1014.7
20260901171504 92 8 3.0 9.0 0.00 0.00 0.00 63 1014.8
20260901171004 92 31 3.0 9.0 0.00 0.00 0.00 60 1014.9
20260901170504 92 44 3.0 8.0 0.00 0.00 0.00 60 1015.1
20260901170004 92 47 3.0 8.0 0.00 0.00 0.00 60 1015.2
20260901165504 92 83 3.0 8.0 0.00 0.00 0.00 61 1015.3
20260901165004 93 90 3.0 9.0 0.00 0.00 0.00 60 1015.4
20260901164504 92 43 3.0 9.0 0.00 0.00 0.00 61 1015.5
20260901164025 92 29 4.0 7.0 0.00 0.00 0.00 61 1015.6
20260901163504 93 28 3.0 7.0 0.00 0.00 0.00 59 1015.8
20260901163004 93 47 3.0 9.0 0.00 0.00 0.00 60 1015.6
20260901162504 92 72 3.0 9.0 0.00 0.00 0.00 60 1015.7
20260901162004 91 87 3.0 8.0 0.00 0.00 0.00 60 1015.9
20260901161504 91 72 3.0 8.0 0.00 0.00 0.00 62 1015.8
20260901161025 90 57 2.0 6.0 0.00 0.00 0.00 62 1015.8
20260901160504 91 44 2.0 6.0 0.00 0.00 0.00 62 1015.8
20260901160004 91 28 3.0 6.0 0.00 0.00 0.00 61 1015.8
20260901155504 91 36 3.0 6.0 0.00 0.00 0.00 63 1015.7
20260901155004 91 67 3.0 9.0 0.00 0.00 0.00 66 1015.7
20260901154525 90 87 3.0 9.0 0.00 0.00 0.00 65 1015.8
20260901154004 90 347 3.0 8.0 0.00 0.00 0.00 67 1015.9
20260901153504 89 57 3.0 7.0 0.00 0.00 0.00 67 1015.9
20260901153004 89 108 3.0 7.0 0.00 0.00 0.00 67 1016.0
20260901152504 89 130 3.0 6.0 0.00 0.00 0.00 67 1016.0
20260901152004 89 128 3.0 8.0 0.00 0.00 0.00 66 1016.1
20260901151504 89 67 3.0 8.0 0.00 0.00 0.00 67 1016.2
20260901151025 89 8 3.0 6.0 0.00 0.00 0.00 68 1016.2
20260901150504 89 50 3.0 7.0 0.00 0.00 0.00 69 1016.3
20260901150025 88 77 2.0 7.0 0.00 0.00 0.00 70 1016.3
20260901145504 87 340 3.0 7.0 0.00 0.00 0.00 73 1016.3
20260901145004 87 353 2.0 7.0 0.00 0.00 0.00 72 1016.2
20260901144504 87 66 2.0 6.0 0.00 0.00 0.00 73 1016.3
20260901144004 86 62 2.0 6.0 0.00 0.00 0.00 73 1016.2
20260901143504 86 14 2.0 5.0 0.00 0.00 0.00 74 1016.2
20260901143004 86 336 2.0 5.0 0.00 0.00 0.00 74 1016.1
20260901142504 86 2 2.0 4.0 0.00 0.00 0.00 74 1016.1
20260901142025 85 26 2.0 6.0 0.00 0.00 0.00 77 1016.1
20260901141504 84 20 2.0 6.0 0.00 0.00 0.00 78 1016.2
20260901141025 84 28 2.0 4.0 0.00 0.00 0.00 79 1016.3
20260901140504 82 22 2.0 4.0 0.00 0.00 0.00 80 1016.3
20260901140004 81 26 2.0 4.0 0.00 0.00 0.00 83 1016.3
20260901135504 80 32 2.0 5.0 0.00 0.00 0.00 84 1016.3
20260901135025 79 30 2.0 5.0 0.00 0.00 0.00 86 1016.4
20260901134504 78 15 1.0 4.0 0.00 0.00 0.00 88 1016.4
20260901134003 77 340 0.0 3.0 0.00 0.00 0.00 88 1016.4
20260901133504 76 342 0.0 2.0 0.00 0.00 0.00 88 1016.4
20260901133004 76 345 1.0 3.0 0.00 0.00 0.00 89 1016.3
20260901132504 75 354 1.0 3.0 0.00 0.00 0.00 89 1016.3
20260901132004 75 14 1.0 2.0 0.00 0.00 0.00 89 1016.3
20260901131504 75 37 1.0 2.0 0.00 0.00 0.00 89 1016.2
20260901131004 74 67 1.0 2.0 0.00 0.00 0.00 89 1016.2
20260901130504 74 26 0.0 2.0 0.00 0.00 0.00 89 1016.2
20260901130004 74 348 0.0 2.0 0.00 0.00 0.00 89 1016.2
20260901125504 74 343 0.0 1.0 0.00 0.00 0.00 89 1016.0
20260901125004 74 334 1.0 1.0 0.00 0.00 0.00 89 1015.9
20260901124504 74 326 1.0 1.0 0.00 0.00 0.00 89 1015.9
20260901124004 73 319 1.0 1.0 0.00 0.00 0.00 89 1015.8
20260901123504 73 352 0.0 1.0 0.00 0.00 0.00 89 1015.8
20260901123003 73 359 0.0 1.0 0.00 0.00 0.00 89 1015.8
20260901122503 73 321 1.0 2.0 0.00 0.00 0.00 89 1015.7
20260901122004 73 322 1.0 2.0 0.00 0.00 0.00 89 1015.6
20260901121503 74 331 1.0 2.0 0.00 0.00 0.00 88 1015.7
20260901121003 74 327 1.0 1.0 0.00 0.00 0.00 89 1015.7
20260901120503 74 329 0.0 1.0 0.00 0.00 0.00 88 1015.7
20260901120025 74 17 1.0 2.0 0.00 0.00 0.00 88 1015.7
20260901115504 74 30 1.0 2.0 0.00 0.00 0.00 88 1015.7
20260901115004 74 40 0.0 2.0 0.00 0.00 0.00 88 1015.7
20260901114503 74 42 0.0 1.0 0.00 0.00 0.00 88 1015.7
20260901114004 74 350 1.0 2.0 0.00 0.00 0.00 88 1015.6
20260901113503 74 348 1.0 2.0 0.00 0.00 0.00 88 1015.6
20260901113025 74 339 1.0 2.0 0.00 0.00 0.00 88 1015.6
20260901112504 74 321 0.0 1.0 0.00 0.00 0.00 88 1015.6
20260901112024 74 132 0.0 1.0 0.00 0.00 0.00 88 1015.5
20260901111524 74 129 0.0 1.0 0.00 0.00 0.00 88 1015.5
20260901111004 74 114 0.0 1.0 0.00 0.00 0.00 88 1015.4
20260901110503 74 119 0.0 1.0 0.00 0.00 0.00 88 1015.3
20260901110004 74 72 0.0 1.0 0.00 0.00 0.00 88 1015.2
20260901105503 74 5 0.0 1.0 0.00 0.00 0.00 88 1015.2
20260901105003 74 346 1.0 2.0 0.00 0.00 0.00 88 1015.1
20260901104504 74 343 1.0 2.0 0.00 0.00 0.00 87 1015.0
20260901104004 74 16 1.0 2.0 0.00 0.00 0.00 87 1015.0
20260901103503 74 27 1.0 2.0 0.00 0.00 0.00 87 1015.1
20260901103003 74 12 1.0 2.0 0.00 0.00 0.00 87 1015.0
20260901102524 75 348 1.0 2.0 0.00 0.00 0.00 87 1015.0
20260901102004 75 339 1.0 2.0 0.00 0.00 0.00 87 1015.0
20260901101503 75 336 0.0 1.0 0.00 0.00 0.00 87 1015.0
20260901101004 75 324 0.0 1.0 0.00 0.00 0.00 87 1015.1
20260901100503 75 332 0.0 1.0 0.00 0.00 0.00 87 1015.0
20260901100025 75 7 0.0 1.0 0.00 0.00 0.00 87 1015.0
20260901095525 75 54 0.0 1.0 0.00 0.00 0.00 86 1015.0
20260901095003 75 91 0.0 2.0 0.00 0.00 0.00 86 1015.0
20260901094503 75 93 0.0 2.0 0.00 0.00 0.00 86 1015.0
20260901094003 75 339 0.0 1.0 0.00 0.00 0.00 86 1015.0
20260901093524 75 347 0.0 1.0 0.00 0.00 0.00 86 1014.9
20260901093003 76 12 0.0 1.0 0.00 0.00 0.00 86 1014.9
20260901092503 76 359 0.0 1.0 0.00 0.00 0.00 86 1015.0
20260901092003 76 351 0.0 1.0 0.00 0.00 0.00 86 1015.1
20260901091504 76 5 0.0 1.0 0.00 0.00 0.00 86 1015.0
20260901091003 76 113 0.0 1.0 0.00 0.00 0.00 85 1015.1
20260901090525 76 6 0.0 1.0 0.00 0.00 0.00 85 1015.2
20260901090004 76 352 0.0 1.0 0.00 0.00 0.00 85 1015.1
20260901085503 76 350 0.0 1.0 0.00 0.00 0.00 85 1015.2
20260901085003 76 331 0.0 1.0 0.00 0.00 0.00 85 1015.1
20260901084503 76 354 0.0 1.0 0.00 0.00 0.00 84 1015.1
20260901084003 76 7 0.0 1.0 0.00 0.00 0.00 85 1015.1
20260901083503 77 31 0.0 1.0 0.00 0.00 0.00 85 1015.1
20260901083003 77 22 0.0 1.0 0.00 0.00 0.00 84 1015.1
20260901082525 77 347 0.0 1.0 0.00 0.00 0.00 84 1015.1
20260901082024 77 12 0.0 1.0 0.00 0.00 0.00 84 1015.1
20260901081503 77 15 1.0 1.0 0.00 0.00 0.00 84 1015.1
20260901081004 77 13 0.0 1.0 0.00 0.00 0.00 84 1015.0
20260901080503 77 346 0.0 1.0 0.00 0.00 0.00 84 1015.1
20260901080003 77 334 0.0 1.0 0.00 0.00 0.00 83 1015.1
20260901075504 77 341 0.0 1.0 0.00 0.00 0.00 83 1015.1
20260901075004 77 340 1.0 1.0 0.00 0.00 0.00 83 1015.1
20260901074503 78 345 1.0 1.0 0.00 0.00 0.00 83 1015.1
20260901074004 78 342 0.0 1.0 0.00 0.00 0.00 83 1015.1
20260901073503 78 319 0.0 1.0 0.00 0.00 0.00 82 1015.1
20260901073003 78 322 0.0 1.0 0.00 0.00 0.00 82 1015.1
20260901072524 78 350 0.0 1.0 0.00 0.00 0.00 82 1015.0
20260901072003 78 6 0.0 1.0 0.00 0.00 0.00 82 1015.1
20260901071525 79 354 1.0 2.0 0.00 0.00 0.00 81 1015.0
20260901071004 79 350 0.0 2.0 0.00 0.00 0.00 81 1015.0
20260901070504 79 350 0.0 1.0 0.00 0.00 0.00 80 1015.1
20260901070024 79 217 0.0 1.0 0.00 0.00 0.00 80 1015.2
20260901065503 79 163 0.0 1.0 0.00 0.00 0.00 79 1015.2
20260901065003 80 148 0.0 1.0 0.00 0.00 0.00 79 1015.2
20260901064503 80 163 0.0 2.0 0.00 0.00 0.00 78 1015.3
20260901064003 80 159 0.0 2.0 0.00 0.00 0.00 78 1015.4
20260901063525 80 147 0.0 1.0 0.00 0.00 0.00 78 1015.4
20260901063003 80 205 0.0 1.0 0.00 0.00 0.00 78 1015.3
20260901062504 80 203 1.0 2.0 0.00 0.00 0.00 78 1015.3
20260901062004 80 202 1.0 2.0 0.00 0.00 0.00 77 1015.3
20260901061503 81 196 1.0 2.0 0.00 0.00 0.00 77 1015.3
20260901061003 81 200 1.0 2.0 0.00 0.00 0.00 77 1015.4
20260901060525 81 208 1.0 2.0 0.00 0.00 0.00 77 1015.3
20260901060024 81 195 0.0 2.0 0.00 0.00 0.00 77 1015.4
20260901055503 81 155 0.0 2.0 0.00 0.00 0.00 76 1015.3
20260901055024 81 173 1.0 2.0 0.00 0.00 0.00 76 1015.3
20260901054504 82 170 1.0 2.0 0.00 0.00 0.00 76 1015.2
20260901054003 82 179 1.0 2.0 0.00 0.00 0.00 75 1015.2
20260901053503 82 190 1.0 2.0 0.00 0.00 0.00 75 1015.2
20260901053004 82 186 1.0 2.0 0.00 0.00 0.00 75 1015.2
20260901052503 82 176 1.0 2.0 0.00 0.00 0.00 74 1015.1
20260901052004 82 185 1.0 2.0 0.00 0.00 0.00 74 1015.2
20260901051503 83 183 1.0 2.0 0.00 0.00 0.00 74 1015.1
20260901051003 83 173 1.0 3.0 0.00 0.00 0.00 73 1015.0
20260901050503 83 178 1.0 3.0 0.00 0.00 0.00 73 1015.0
20260901050003 83 184 1.0 3.0 0.00 0.00 0.00 73 1015.0
20260901045524 83 183 2.0 4.0 0.00 0.00 0.00 73 1014.8
20260901045003 84 173 2.0 4.0 0.00 0.00 0.00 72 1014.8
20260901044505 84 156 2.0 3.0 0.00 0.00 0.00 72 1014.8